Location: Goodsell Observatory
(44.4617°N, 93.1522°W)
Time: 01:47:19
(UTC-06:00)

Daily predictions for brighter satellites

Satellite Brightness Start Highest point End
(mag) Time Altitude Azimuth Time Altitude Azimuth Time Altitude Azimuth
ATLAS 2AS CENTAUR R/B 4.4 03:09:46 28° NNW 03:09:46 28° NNW 03:15:24 10° NNE
Cosmos 1980 Rocket 4.4 03:12:53 18° E 03:12:59 18° E 03:16:44 10° ENE
SJ 16-02 3.9 03:39:17 18° E 03:39:17 18° E 03:41:45 10° NE
Cosmos 1697 Rocket 3.7 03:43:05 42° ENE 03:43:05 42° ENE 03:47:05 10° NE
COSMOS 2455 3.5 04:07:45 23° NNW 04:11:25 53° NE 04:17:18 10° SE
ADEOS II 3.6 04:08:31 10° N 04:10:56 27° N 04:10:56 27° N
CZ-4B R/B 4.2 04:11:44 10° NNE 04:16:57 44° E 04:21:43 13° S
Cosmos 2263 Rocket 4.0 04:21:14 10° N 04:26:09 29° NE 04:31:03 10° ESE
Meteor 2-10 Rocket 3.3 04:30:11 84° NE 04:30:11 84° NE 04:35:06 10° NNE
Cosmos 1934 Rocket 4.0 04:28:36 19° S 04:33:25 80° E 04:39:49 10° N
CZ-4B DEB 4.3 04:31:45 10° NNE 04:37:16 75° ESE 04:40:30 26° S
Cosmos 2360 4.2 04:36:35 50° SSW 04:38:10 82° ESE 04:43:55 10° NNE
Okean O Rocket 1.6 04:33:57 10° NNE 04:38:25 80° ESE 04:38:29 80° ESE
Cosmos 2278 4.5 04:41:27 37° NW 04:41:27 37° NW 04:45:58 10° NNE
Cosmos 2322 Rocket 3.7 04:41:53 10° SSE 04:46:56 34° ESE 04:52:02 10° NE
Cosmos 2123 Rocket 3.9 04:41:18 10° N 04:47:34 85° W 04:53:50 10° S
Cosmos 158 Rocket 4.3 04:48:57 47° SSW 04:48:57 47° SSW 04:52:51 10° S
Cosmos 405 3.7 04:47:26 10° N 04:50:58 53° ENE 04:54:28 10° SSE
Cosmos 1980 Rocket 2.1 04:54:42 45° SW 04:56:22 69° WNW 05:02:02 10° NNE
Cosmos 2227 4.0 04:51:06 10° NNW 04:56:45 82° WSW 05:02:22 10° SSE
Cosmos 1821 Rocket 4.1 04:58:36 41° WSW 05:00:07 49° WNW 05:06:11 10° N
ATLAS 5 CENTAUR R/B 2.3 04:59:40 24° S 05:02:14 56° ESE 05:07:06 10° NE
PAYLOAD B 4.1 04:57:32 10° N 05:03:01 67° WNW 05:06:25 23° SSW
Cosmos 489 Rocket 4.4 04:57:37 14° SSW 05:03:13 90° NW 05:09:29 10° NNE
Cosmos 2242 Rocket 4.2 04:59:03 10° S 05:03:33 60° E 05:08:04 10° NNE
EXPRESS MD2 3.5 05:02:49 58° WNW 05:03:35 80° SSW 05:10:25 10° ESE
Cosmos 1048 Rocket 3.9 05:05:24 10° NNW 05:10:27 57° WSW 05:15:27 10° S
Cosmos 372 Rocket 3.9 05:12:36 30° SW 05:15:01 60° WNW 05:20:08 10° NNE
SJ 16-02 1.6 05:16:20 41° W 05:16:56 44° WNW 05:21:11 10° N
IDEFIX/ARIANE 42P 3.0 05:11:55 10° NNE 05:17:07 62° E 05:22:16 10° S
Cosmos 1441 Rocket 3.3 05:13:58 10° S 05:17:57 80° E 05:21:58 10° NNE
Meteor 2-17 Rocket 4.3 05:12:09 10° SSW 05:18:11 70° W 05:24:17 10° N
Cosmos 1733 Rocket 3.0 05:14:00 10° N 05:18:25 88° WSW 05:22:49 10° S
Cosmos 1862 Rocket 3.6 05:19:03 10° S 05:23:24 81° E 05:27:50 10° N
USA 229 DEB 4.3 05:18:02 10° NNW 05:25:08 61° NE 05:32:24 10° SE
USA 229 4.3 05:18:09 10° NNW 05:25:14 60° NE 05:32:30 10° SE
Cosmos 1697 Rocket 3.7 05:24:49 25° WNW 05:25:54 27° NW 05:30:38 10° N
Meteor 1-31 Rocket 3.3 05:22:57 10° N 05:26:31 36° WNW 05:26:53 35° W
Cosmos 1125 Rocket 3.7 05:26:34 23° SW 05:29:32 47° WNW 05:34:34 10° N
Cosmos 1933 3.8 05:28:41 30° WSW 05:29:59 39° WNW 05:33:49 10° N
MTI 4.2 05:28:18 10° SSE 05:31:27 64° ENE 05:34:37 10° N
COSMO-SKYMED 1 2.4 05:29:05 10° S 05:33:25 77° WSW 05:37:47 10° NNW
SL-16 R/B 2.3 05:28:14 10° SSW 05:33:54 84° ESE 05:39:35 10° NNE
Okean-O 2.7 05:34:18 10° NNE 05:38:45 79° ESE 05:43:11 10° S
MSX 4.3 05:33:59 10° NNE 05:39:44 64° ESE 05:45:27 10° S
Cosmos 1782 3.7 05:36:33 10° S 05:40:29 53° E 05:44:26 10° NNE
CZ-2C R/B 2.8 05:35:23 10° NNE 05:40:30 72° ESE 05:45:40 10° S
BREEZE-M DEB (TANK) 3.6 05:42:18 15° SW 05:42:18 15° SW 05:43:16 10° S
BREEZE M DEB (TANK) 2.6 05:43:57 21° NNW 05:44:34 25° N 05:46:36 10° ENE
Cosmos 1605 Rocket 4.3 05:40:04 10° SW 05:45:50 43° WNW 05:51:37 10° N
OPS 8737 4.4 05:43:29 16° SW 05:46:18 65° NW 05:49:38 10° NNE
CZ-3 R/B 3.8 05:35:27 16° WSW 05:46:30 28° SW 05:52:41 10° SSE
Aureole 3 2.6 05:44:13 10° NNW 05:47:09 59° W 05:50:16 10° S
CZ-2C R/B 4.2 05:45:12 10° SSW 05:49:34 39° W 05:53:54 10° NNW
Cosmos 2100 Rocket 3.9 05:46:54 10° S 05:53:02 87° W 05:59:14 10° N
Cosmos 1606 2.7 05:49:26 10° S 05:53:15 88° E 05:57:03 10° N
SJ-12 4.5 05:51:30 10° NNE 05:55:38 64° E 05:59:43 10° S
Geosat 4.1 05:51:06 10° SSE 05:56:08 81° ENE 06:01:11 10° NNW
Meteor 1-26 Rocket 4.4 05:50:29 10° SSW 05:56:14 56° WNW 06:01:58 10° N
COSMOS 2455 3.6 05:51:59 10° NW 05:57:03 29° WSW 06:02:06 10° SSW
CZ-4B R/B 4.0 05:52:41 10° N 05:57:19 29° WNW 06:01:59 10° WSW
Cosmos 1633 2.6 05:53:55 10° NNW 05:57:31 58° W 06:01:06 10° S
Cosmos 1437 Rocket 2.8 05:56:12 10° N 06:00:17 89° E 06:04:16 10° S
Feng Yun 1-1 Rocket 4.3 05:56:40 10° N 06:02:10 63° WNW 06:07:47 10° SSW
Cosmos 494 Rocket 4.1 05:57:36 10° NNW 06:02:35 52° WSW 06:07:31 10° S
Meteor 1-20 Rocket 4.4 06:03:20 10° NNW 06:09:02 56° W 06:14:38 10° S
SS 2 4.5 06:07:19 10° NW 06:10:12 86° ENE 06:13:13 10° SE
Cosmos 2263 Rocket 2.4 06:04:52 10° NW 06:10:18 49° WSW 06:15:44 10° S
Cosmos 1782 Rocket 3.6 06:09:09 10° N 06:13:32 88° E 06:17:51 10° S
Okean O Rocket 3.5 06:12:20 10° NW 06:14:08 12° WNW 06:15:57 10° W
Cosmos 1459 Rocket 4.0 06:08:26 10° SSW 06:14:39 65° W 06:21:00 10° N
Cosmos 405 Rocket 3.9 06:11:33 10° WSW 06:14:40 22° WNW 06:17:45 10° NNW
Cosmos 2173 Rocket 4.0 06:12:10 10° SSW 06:18:15 61° W 06:24:20 10° N
Cosmos 1484 Rocket 3.2 06:15:05 10° NNE 06:19:06 73° ESE 06:23:06 10° S
Cosmos 2016 Rocket 4.1 06:12:54 10° S 06:19:14 84° W 06:25:39 10° N
USA 32 4.4 06:14:00 10° N 06:19:15 71° E 06:24:28 10° SSE
Cosmos 2084 3.8 06:16:13 10° NNW 06:19:58 56° NE 06:23:45 10° SE
Meteor 1-10 Rocket 4.2 06:17:13 10° S 06:22:46 85° W 06:28:20 10° N
BREEZE-M R/B 4.4 06:18:54 10° SW 06:24:50 83° SSE 06:32:33 10° ENE
Iridium 2 3.6 06:22:28 10° S 06:26:18 74° W 06:30:10 10° N
Cosmos 1802 Rocket 4.1 06:20:05 10° SSW 06:26:24 64° W 06:32:41 10° N
Cosmos 2061 Rocket 4.0 06:21:09 10° SSW 06:27:16 61° W 06:33:25 10° N
ISS -1.4 06:24:38 10° SSW 06:27:18 23° SE 06:29:59 10° E
Meteor 1-27 Rocket 4.3 06:23:13 10° S 06:28:44 66° E 06:34:24 10° NNE
Sich 1 Rocket 3.9 06:26:36 10° NNW 06:30:49 45° W 06:35:00 10° SSW
Cosmos 2322 Rocket 2.7 06:25:37 10° SW 06:30:54 39° NW 06:36:15 10° NNE
Radarsat Rocket 4.2 06:26:26 10° N 06:32:02 49° WNW 06:37:55 10° SW
